This is the latest recevied weather packets stored in our database for station/object KC5TIL. If no packets are shown the sender has not sent any weather packets the latest 10 day(s).
| Time | Temp. | Humidity | Pressure | Rain* | Wind** | Luminosity | Snow |
|---|---|---|---|---|---|---|---|
| 1788607394 | 25.56° C | 84% | 1014.7 hPa | 0 mm | - | 0 W/m² | - |
| 1788607089 | 25° C | 84% | 1014.4 hPa | 0 mm | - | 0 W/m² | - |
| 1788606783 | 25° C | 84% | 1014.4 hPa | 0 mm | - | 0 W/m² | - |
| 1788606483 | 25.56° C | 83% | 1014.6 hPa | 0 mm | - | 0 W/m² | - |
| 1788606176 | 25.56° C | 83% | 1014.3 hPa | 0 mm | - | 0 W/m² | - |
| 1788605872 | 25° C | 83% | 1014.5 hPa | 0 mm | - | 0 W/m² | - |
| 1788605571 | 25.56° C | 83% | 1014.7 hPa | 0 mm | - | 0 W/m² | - |
| 1788605266 | 25.56° C | 83% | 1014.6 hPa | 0 mm | - | 0 W/m² | - |
| 1788604962 | 25.56° C | 82% | 1014.5 hPa | 0 mm | - | 0 W/m² | - |
| 1788604656 | 25.56° C | 82% | 1014.7 hPa | 0 mm | - | 0 W/m² | - |
| 1788604381 | 25.56° C | 81% | 1014.7 hPa | 0 mm | - | 0 W/m² | - |
| 1788604047 | 26.11° C | 81% | 1014.6 hPa | 0 mm | - | 0 W/m² | - |
| 1788603744 | 26.11° C | 81% | 1014.6 hPa | 0 mm | - | 0 W/m² | - |
| 1788603443 | 26.11° C | 80% | 1014.6 hPa | 0 mm | - | 0 W/m² | - |
| 1788603141 | 26.11° C | 80% | 1014.4 hPa | 0 mm | - | 0 W/m² | - |
| 1788602838 | 26.11° C | 79% | 1014.4 hPa | 0 mm | - | 0 W/m² | - |
| 1788602533 | 26.67° C | 79% | 1014.3 hPa | 0 mm | - | 0 W/m² | - |
| 1788602232 | 26.67° C | 79% | 1014.3 hPa | 0 mm | - | 0 W/m² | - |
| 1788601927 | 26.67° C | 78% | 1014.4 hPa | 0 mm | - | 0 W/m² | - |
| 1788601627 | 27.22° C | 77% | 1014.2 hPa | 0 mm | - | 0 W/m² | - |
| 1788601321 | 27.22° C | 77% | 1014.3 hPa | 0 mm | - | 0 W/m² | - |
| 1788601016 | 27.22° C | 76% | 1014.2 hPa | 0 mm | - | 0 W/m² | - |
| 1788600712 | 27.22° C | 76% | 1014.1 hPa | 0 mm | - | 0 W/m² | - |
| 1788600406 | 27.22° C | 76% | 1014.1 hPa | 0 mm | - | 0 W/m² | - |
| 1788600102 | 27.22° C | 76% | 1014 hPa | 0 mm | - | 0 W/m² | - |
* Rain latest hour (hover to see other rain measurements)
** Current wind speed in m/s (hover to see current wind gust speed)